Regional Weather Roundup
Issued by NWS

Home | Current Version | Previous Version | Graphics & Text | Print | Product List | Glossary On
Versions: 1 2 3 4 5 6 7 8 9 10 11 12 13 14 15 16 17 18 19 20 21 22 23 24 25 26 27 28 29 30 31 32 33 34 35 36 37 38 39 40 41 42 43 44 45 46 47 48 49 50
823
ASUS45 KBOU 261707
RWRCO

WEATHER ROUNDUP FOR COLORADO
NATIONAL WEATHER SERVICE DENVER/BOULDER CO
1100 AM MDT TUE SEP 26 2017

NOTE: "FAIR" INDICATES FEW OR NO CLOUDS BELOW 12000 FEET WITH NO
SIGNIFICANT WEATHER AND/OR OBSTRUCTIONS TO VISIBILITY.

COZ001>005-013-030-031-261800-
...NORTHWEST COLORADO...

CITY           SKY/WX    TMP DP  RH WIND       PRES   REMARKS
CRAIG          FAIR      50  28  42 N5        30.22
HAYDEN         FAIR      47  27  45 CALM      30.23
MEEKER         FAIR      48  30  49 VRB5      30.20
RABBIT EARS PA FAIR      36  23  60 CALM      30.31S
STEAMBOAT SPGS FAIR      44  30  57 CALM      30.21F
WALDEN         FAIR      41  23  48 CALM      30.27F
$$

COZ006>008-011-261800-
...WEST CENTRAL VALLEYS...

CITY           SKY/WX    TMP DP  RH WIND       PRES   REMARKS
GRAND JUNCTION FAIR      56  31  38 S6        30.14
MONTROSE       FAIR      52  30  43 VRB6      30.18
EAGLE          FAIR      46  26  45 CALM      30.24
RIFLE          FAIR      50  32  50 CALM      30.17
DELTA          FAIR      53  29  39 CALM      30.16F
NUCLA          FAIR      54  27  35 CALM      30.18F
$$

COZ017>023-064>068-261800-
...SOUTHWEST COLORADO...

CITY           SKY/WX    TMP DP  RH WIND       PRES   REMARKS
DURANGO        FAIR      58  31  35 E9        30.16
CORTEZ         FAIR      59  22  24 S3        30.12
PAGOSA SPRINGS FAIR      56  30  38 S6        30.22S
TELLURIDE      FAIR      52  11  19 W5        30.23S
WOLF CREEK PAS CLOUDY    34  30  86 SW12G18   30.42R WCI  25
$$

COZ009-010-012-014-032>034-037-058>063-261800-
...CENTRAL COLORADO...

CITY           SKY/WX    TMP DP  RH WIND       PRES   REMARKS
ASPEN          FAIR      49  25  39 N8        30.20
BUENA VISTA    PTSUNNY   47  32  56 W3        30.26F
COPPER MTN     FAIR      45   7  21 S8        30.36R
BERTHOUD PASS  FAIR      32  23  69 SW8       30.38S WCI  25
COTTONWOOD PAS CLOUDY    45  36  70 E6        30.31S
GUNNISON       NOT AVBL
KREMMLING      FAIR      50  28  43 CALM      30.26F
LEADVILLE      FAIR      40  26  57 VRB7      30.28S
MONARCH PASS   FAIR      41  14  33 S14G21    30.47S
SALIDA         FAIR      52  34  50 CALM      30.32F
SUNLIGHT       FAIR      37  18  44 S3        30.33F
WILKERSON PASS FAIR      32  28  86 SW3       30.39R
$$

COZ069>075-261800-
...SAN LUIS VALLEY/SANGRE DE CRISTO MOUNTAINS...

CITY           SKY/WX    TMP DP  RH WIND       PRES   REMARKS
ALAMOSA        FAIR      52  25  35 CALM      30.23
DEL NORTE      FAIR      51  23  32 S6        30.24F
LA VETA PASS   FOG       39  36  87 N6        30.44S THUNDER VSB<1/4
SAGUACHE       FAIR      50  25  37 S6        30.24S
$$

COZ035-036-038>040-261800-
...NORTHERN COLORADO FRONT RANGE...

CITY           SKY/WX    TMP DP  RH WIND       PRES   REMARKS
DENVER INTL AP PTSUNNY   53  42  66 VRB5      30.23R
DMNS CITY PARK   N/A     54  42  64 N7        30.23S
AURORA         CLOUDY    50  44  78 NE3       30.23R
FRONT RANGE AP PTSUNNY   54  46  76 CALM      30.24R
ERIE MUNI ARPT CLOUDY    54  42  62 CALM      30.27S
BOULDER MUN AP CLOUDY    54  43  66 CALM      30.22S
CENTENNIAL     PTSUNNY   51  43  74 CALM      30.23
BROOMFIELD     PTSUNNY   50  43  76 CALM      30.24
FORT COLLINS   CLOUDY    54  43  66 E3        30.23S
LONGMONT       PTSUNNY   55  43  62 CALM      30.24S
$$

COZ041-046-047-076>085-087-088-261800-
...PIKES PEAK/PALMER DIVIDE AND SOUTHERN FOOTHILLS...

CITY           SKY/WX    TMP DP  RH WIND       PRES   REMARKS
COLO. SPRINGS  CLOUDY    47  45  93 S7        30.26F
A. F. ACADEMY  CLOUDY    47  46  99 S8        30.25S
SCHRIEVER AFB  FAIR      48  44  85 SW8       30.26S
CHEYENNE MTN   LGT RAIN  43  43 100 SE8       30.20S VSB 1/8
ELLICOTT       FAIR     N/A N/A N/A W3        30.24
FALCON         CLOUDY    46  42  85 S3        30.28S
FORT CARSON    CLOUDY    48  45  87 S8        30.23F
LIMON            N/A    N/A N/A N/A MISG      30.23
MONUMENT HILL  CLOUDY    46  37  71 S8        30.27S
CANON CITY     CLOUDY    55  46  71 E6        30.23F
WALSENBURG     CLOUDY    50  46  87 SE6       30.24S
TRINIDAD       CLOUDY    49  46  90 E3        30.24S
$$

COZ042>045-048>051-090-091-261800-
...NORTHEAST COLORADO...

CITY           SKY/WX    TMP DP  RH WIND       PRES   REMARKS
GREELEY ARPT   FAIR      51  44  77 W3        30.23S
AKRON          FAIR      54  41  61 W3        30.22
BURLINGTON     PTSUNNY   53  46  77 VRB3      30.22
WRAY           FAIR      59  45  58 N7        30.22R
YUMA           FAIR      55  25  30 N7        30.21S
STERLING       FAIR      54  46  76 SW6       30.20F
HOLYOKE        FAIR      61  45  55 NW3       30.21S
FORT MORGAN    CLOUDY    48  46  93 CALM      30.23S
$$

COZ086-089-092>099-261800-
...SOUTHEAST COLORADO...

CITY           SKY/WX    TMP DP  RH WIND       PRES   REMARKS
PUEBLO         CLOUDY    54  44  69 CALM      30.22S
LA JUNTA       CLOUDY    56  45  66 S3        30.22F
LAMAR          PTSUNNY   55  45  68 CALM      30.20F
SPRINGFIELD      N/A     53  49  86 VRB6      30.22
$$




USA.gov is the U.S. government's official web portal to all federal, state and local government web resources and services.